Theta_e
295 296 297 296 295 295 294 294 293 293 292 291 290 290 289 288 288 287 287 287 286 286 285 285 285 285 285 285 285 285 285 285 286 287 287 287 287 288 289 289 288 287 286
295 295 295 294 293 293 292 292 292 291 290 290 289 289 288 287 287 286 286 286 285 284 284 284 284 284 285 285 284 284 284 285 285 286 286 286 286 286 286 288 286 287 286
293 293 292 291 291 291 290 290 290 289 289 288 287 287 286 285 284 283 283 283 283 283 283 283 283 284 284 284 284 284 284 284 284 285 285 285 285 284 284 285 287 287 286
290 290 290 289 289 289 289 288 288 288 287 287 286 285 284 283 283 283 283 283 283 283 283 283 283 284 284 284 284 284 284 284 284 284 284 284 284 284 283 283 285 287 287
288 288 288 289 288 288 288 287 287 286 285 285 284 283 283 282 283 283 283 283 283 283 283 283 283 283 284 284 284 284 284 283 283 283 284 283 283 282 282 284 285 285 286
287 286 285 286 286 285 285 285 284 284 284 283 283 282 282 282 282 283 283 282 282 282 283 283 283 283 283 284 284 284 283 283 282 282 282 283 283 282 283 283 283 284 284
283 282 283 283 283 283 283 283 283 283 282 282 282 282 281 281 281 282 283 284 283 283 283 283 283 283 283 283 284 284 284 283 282 281 281 281 282 282 282 282 283 283 284
281 281 281 281 281 281 281 281 281 281 281 281 281 280 280 280 280 282 283 283 283 283 283 283 283 283 283 282 282 282 282 282 283 283 283 282 283 283 283 284 283 283 283
280 280 280 280 280 280 280 280 280 280 280 280 280 280 280 280 280 281 282 282 282 282 283 283 283 283 282 282 281 281 280 280 282 282 283 283 283 283 283 283 282 281 281
280 279 279 279 279 278 278 278 278 278 279 279 279 279 280 280 281 282 283 283 282 283 283 283 283 283 283 282 282 281 281 282 281 282 283 283 284 284 284 284 284 283 282
279 279 278 277 278 278 278 277 278 278 278 278 278 278 279 279 279 280 281 282 282 283 283 283 283 283 283 283 283 283 282 283 283 283 283 283 283 283 283 283 284 284 283
277 277 276 276 276 277 277 277 276 276 277 277 277 278 278 279 279 279 281 282 282 282 282 282 282 282 282 283 283 284 284 285 285 284 283 283 283 283 283 283 283 283 282
276 276 276 275 275 276 276 276 276 276 276 277 277 278 279 280 279 280 281 282 282 281 281 281 281 281 282 282 283 283 284 284 284 283 283 283 283 282 282 282 282 282 282
275 275 275 275 275 275 275 275 275 276 276 277 277 278 278 279 279 279 279 279 279 279 279 279 279 279 279 279 280 280 281 281 282 282 282 281 281 280 281 282 282 282 281
274 274 274 274 275 275 275 275 275 275 275 276 277 277 277 277 277 278 278 278 278 278 278 278 277 277 276 275 278 278 279 279 280 280 280 279 280 280 280 281 281 281 280
274 274 274 274 274 274 274 274 274 275 276 277 277 277 277 277 277 278 279 279 280 280 278 278 277 277 276 275 274 276 277 278 278 278 277 278 278 279 279 280 280 280 280
274 274 274 274 274 273 273 273 273 274 274 275 277 278 278 279 279 279 279 279 279 279 279 278 277 276 276 275 274 273 272 273 275 275 275 276 276 276 277 277 278 278 279
274 274 274 274 274 273 273 273 272 272 272 275 275 274 274 275 276 277 278 278 278 278 277 277 276 276 276 275 274 274 273 272 272 272 273 273 274 274 274 275 275 276 276
274 274 274 274 273 273 272 272 272 272 272 273 274 275 275 274 274 275 276 277 277 277 277 276 276 276 275 275 274 273 273 272 272 271 271 271 271 271 272 273 273 274 274
274 274 273 273 273 272 272 272 271 271 271 271 271 272 272 272 273 273 273 273 273 273 273 273 273 273 273 272 272 272 272 271 271 271 271 271 270 270 270 271 271 272 273
273 273 272 272 271 271 271 270 270 270 269 270 270 271 270 271 271 271 272 272 272 272 271 271 271 270 270 270 270 270 270 270 271 271 270 270 270 269 270 270 270 270 270
272 272 271 271 271 270 270 270 269 269 269 268 269 270 270 270 270 270 270 270 270 269 269 269 268 268 268 268 268 268 268 268 269 269 269 270 269 269 269 269 269 269 269
271 270 270 270 270 270 269 269 268 268 268 267 268 267 268 268 268 268 268 269 268 268 268 267 267 267 267 266 266 266 266 266 267 267 268 268 268 268 268 268 268 268 268
268 268 268 268 268 267 267 267 267 267 266 266 266 266 267 267 268 268 268 268 268 268 267 267 266 266 266 266 265 265 265 265 266 266 266 267 267 267 267 267 267 267 267
267 267 266 266 266 266 266 266 265 265 265 265 266 266 267 267 266 267 267 267 266 266 266 266 266 266 266 265 265 265 265 265 265 265 266 266 266 266 266 266 266 266 266
266 266 266 266 265 265 265 264 264 265 265 265 265 265 266 266 266 266 266 265 265 265 265 265 265 265 265 265 265 265 265 265 265 265 265 265 265 265 265 265 265 265 265
Wind_Speed
33 34 33 30 27 27 27 26 25 24 22 22 22 22 20 18 17 17 17 18 18 15 14 14 15 15 15 14 16 17 16 15 7 10 15 12 12 13 16 18 16 13 11
31 30 30 28 26 25 24 24 23 22 21 21 20 20 19 19 18 19 20 21 21 19 17 18 19 18 17 16 17 18 17 18 14 11 12 17 18 18 16 14 13 12 10
28 27 24 24 23 23 21 20 21 21 20 19 19 20 19 19 18 17 16 16 16 15 15 16 17 16 17 17 19 18 17 18 18 15 10 11 14 14 9 8 8 10 10
24 24 22 19 18 17 17 17 17 17 18 19 19 19 18 17 16 16 15 15 15 15 15 17 18 18 19 18 19 20 19 18 17 16 13 12 13 11 14 14 10 8 9
21 20 20 17 15 15 15 16 16 17 18 17 18 18 18 16 16 16 16 15 15 16 16 17 18 18 18 18 19 20 19 17 16 15 13 11 11 8 8 4 7 10 12
19 17 15 15 16 15 15 15 16 16 16 17 19 20 19 17 16 15 15 16 16 17 16 16 17 17 17 18 18 17 19 20 16 14 13 12 13 14 10 12 11 5 4
14 14 15 14 13 12 12 13 14 15 16 18 18 18 20 20 16 16 15 17 18 17 16 16 16 16 16 18 18 18 20 21 23 18 17 18 17 16 14 12 13 13 11
14 13 13 12 10 10 11 12 13 15 16 17 17 18 19 19 15 14 14 17 18 18 19 17 16 16 15 16 18 22 25 24 24 24 26 26 23 19 18 18 19 17 17
10 10 10 11 12 12 11 10 10 11 12 13 12 13 14 14 12 14 16 18 17 18 18 18 18 18 17 16 17 20 18 23 24 25 27 28 26 22 19 15 19 14 10
8 8 8 7 8 9 9 9 9 10 9 9 10 11 11 12 11 12 13 16 17 16 18 19 17 18 17 16 19 21 21 21 18 21 22 23 22 24 22 23 22 16 14
8 7 7 8 8 8 8 9 9 9 8 8 9 9 10 11 12 11 12 14 15 13 15 16 16 14 16 18 20 24 25 22 22 23 22 21 21 21 23 24 26 27 21
8 7 8 8 8 8 8 8 7 7 7 6 5 5 5 6 7 7 9 12 12 13 13 12 11 11 13 15 17 21 19 17 22 24 24 24 23 21 21 23 24 27 30
6 7 8 8 8 6 6 6 6 5 5 5 5 5 3 2 4 4 4 6 6 3 5 8 8 8 10 10 12 14 16 19 21 19 16 19 21 20 17 17 17 18 21
5 7 7 6 5 5 5 5 6 7 8 8 7 6 5 5 5 6 6 6 5 7 7 7 8 10 12 14 17 18 17 15 13 13 14 15 14 16 18 17 19 18 19
10 9 7 6 6 5 7 7 8 8 8 10 11 9 8 9 9 7 8 7 7 6 8 9 10 11 12 11 10 10 14 19 16 15 15 15 15 15 18 16 18 18 16
3 3 3 4 4 5 4 6 7 8 8 9 10 10 8 9 8 8 10 10 10 9 12 12 13 13 13 11 11 10 9 7 10 12 12 11 8 9 10 12 10 12 13
5 4 4 4 4 5 6 7 9 7 9 10 10 11 12 12 12 12 12 13 13 13 17 16 18 17 18 16 14 13 15 12 12 12 12 12 12 12 11 11 10 11 12
8 8 8 9 9 10 11 12 12 13 12 11 9 10 11 11 12 13 13 14 18 17 20 21 21 22 22 22 21 20 18 16 17 16 15 15 14 12 12 13 13 13 11
11 12 12 13 13 14 14 14 14 15 16 19 18 16 13 13 14 14 14 18 21 22 23 24 26 27 26 25 25 25 24 22 21 20 20 19 17 16 16 16 14 13 13
14 15 15 15 15 15 15 16 17 18 19 20 21 20 18 16 17 17 16 17 19 22 24 25 25 26 26 27 27 26 26 25 25 24 25 23 22 19 20 19 17 17 17
15 15 15 16 16 16 17 17 18 17 19 21 23 21 17 17 20 21 22 21 21 22 22 22 23 24 24 24 24 24 24 26 25 25 25 26 24 24 24 22 20 18 16
11 12 13 15 15 16 18 17 18 19 21 22 25 24 20 21 23 23 23 24 25 23 21 21 21 22 22 22 22 23 25 26 25 24 25 26 25 25 23 22 20 19 17
13 14 16 17 18 19 19 20 21 22 24 25 26 26 24 23 22 22 22 21 20 18 17 17 19 21 21 22 22 22 24 26 25 22 23 23 23 24 23 24 22 20 20
20 21 22 23 23 23 23 24 23 23 24 24 24 23 23 23 23 22 21 20 20 20 18 18 18 19 19 19 19 20 21 22 21 21 21 21 21 19 19 21 22 22 20
21 22 22 24 24 23 23 23 23 24 24 24 24 24 23 23 23 23 23 22 22 21 21 20 19 18 17 16 17 17 18 18 19 19 19 20 20 18 18 18 18 19 18
23 24 25 25 25 25 25 26 26 25 25 25 24 24 24 24 25 24 23 22 22 21 20 18 17 17 17 16 16 15 16 16 16 16 17 19 19 19 18 17 17 17 17
Wind_Direction
183 185 186 184 187 190 192 193 195 200 206 209 211 212 214 214 215 218 219 222 226 227 227 233 237 235 232 235 242 242 241 236 244 263 275 286 285 279 268 271 277 275 275
172 170 172 175 180 186 189 191 196 200 204 206 206 211 215 218 224 229 231 233 235 240 244 241 242 240 238 236 240 240 237 241 236 254 262 266 280 282 283 268 260 262 264
157 160 166 171 179 183 189 192 194 197 202 206 209 215 221 226 230 234 229 229 232 236 238 240 241 235 238 237 238 239 241 245 243 244 260 267 271 288 277 268 256 249 254
154 158 162 169 179 186 189 194 200 207 215 218 222 225 227 230 229 228 227 230 236 238 239 240 238 237 237 236 237 239 237 238 239 241 246 258 269 266 273 282 286 256 244
150 158 161 167 181 194 202 205 210 216 220 223 223 223 225 226 228 228 230 233 239 243 242 241 244 241 243 241 240 241 236 235 235 238 243 237 239 242 247 271 280 293 289
158 164 167 174 186 198 208 211 214 218 219 219 220 221 221 226 226 225 235 237 239 241 244 246 245 242 239 239 234 238 244 230 225 222 234 234 228 229 245 274 285 294 313
151 158 165 171 181 193 204 212 216 218 219 220 223 225 228 234 231 231 231 242 243 241 243 244 247 246 245 241 237 240 243 236 230 227 229 232 245 253 265 269 269 263 259
157 164 170 168 173 186 201 213 219 222 226 230 231 232 236 240 233 233 234 238 246 250 250 248 247 246 244 245 247 249 240 237 236 236 247 258 259 265 266 278 282 282 280
156 166 168 175 179 189 194 204 214 221 224 228 234 236 239 247 240 236 236 240 244 245 249 251 253 253 251 244 245 242 242 248 242 243 247 254 261 260 260 259 257 271 283
160 169 172 183 195 203 201 207 215 223 226 231 236 238 239 245 241 237 233 237 237 238 246 249 247 250 253 241 239 241 243 251 253 258 246 246 245 248 245 243 252 231 242
168 167 179 193 193 202 193 205 207 211 218 223 234 243 246 246 245 241 237 243 244 245 241 244 250 248 245 244 244 245 244 254 252 254 261 257 253 250 247 243 244 244 236
163 173 190 191 193 193 195 206 218 215 223 234 241 251 245 241 237 232 236 240 246 247 250 253 257 254 254 254 255 257 258 257 252 247 246 252 257 260 262 259 254 251 251
174 193 203 191 196 194 203 211 212 211 221 224 237 243 234 195 181 202 234 213 207 214 243 253 255 255 249 253 254 258 258 255 255 251 243 248 257 263 270 269 263 262 260
199 205 199 191 205 209 219 229 228 223 221 229 234 230 225 209 214 225 233 242 254 270 277 281 277 272 271 271 268 265 265 269 271 264 264 270 272 271 263 260 265 266 263
187 191 188 194 200 210 223 234 238 239 241 242 244 242 243 249 249 247 239 251 259 274 263 267 271 284 298 291 275 274 268 253 259 267 269 276 268 270 265 260 259 260 248
189 191 208 213 211 226 240 253 244 257 261 251 247 250 254 268 264 259 254 256 259 249 258 264 271 279 288 298 289 286 282 267 256 265 270 270 267 253 257 261 258 251 249
229 226 211 224 253 262 273 275 287 265 258 251 249 249 256 269 265 263 259 259 259 257 261 265 267 272 279 285 289 287 282 279 269 264 263 262 259 257 255 258 261 260 260
235 237 237 238 242 245 247 252 253 256 271 268 248 255 258 269 271 268 266 267 263 252 256 264 269 273 277 281 285 284 283 277 273 269 265 263 261 259 256 254 252 251 252
247 250 249 247 245 247 251 256 259 263 268 275 285 282 285 283 275 273 268 260 266 268 268 269 273 277 278 281 284 287 284 276 268 265 263 260 258 254 253 249 245 241 241
249 252 253 253 255 255 256 259 263 265 270 276 282 286 299 300 291 286 279 274 270 272 276 280 282 284 284 283 284 285 284 279 274 265 259 257 255 248 249 250 244 241 238
256 254 256 256 255 257 260 259 264 267 269 275 280 288 290 285 283 281 282 281 281 282 283 284 287 287 288 288 288 286 282 279 276 272 266 260 254 246 247 248 247 246 246
264 267 267 267 270 267 267 271 273 273 273 275 281 286 284 274 270 270 274 276 278 280 282 284 285 285 287 287 287 286 284 280 277 274 270 265 259 254 248 245 242 240 236
273 274 274 273 274 275 272 269 267 267 269 273 277 280 281 278 277 276 276 276 277 276 277 277 279 282 284 285 284 281 278 277 278 277 272 268 262 254 246 240 237 233 228
280 276 272 271 269 265 263 264 265 267 270 272 273 273 273 276 278 280 280 281 281 280 281 281 282 282 283 283 282 281 279 276 274 270 265 261 258 253 249 243 238 235 234
276 272 270 269 270 268 269 267 268 270 271 272 273 273 276 278 279 281 283 284 283 281 280 280 281 282 282 283 282 281 281 278 272 266 259 254 251 248 243 236 229 226 226
277 272 270 270 267 266 264 265 267 270 270 272 273 274 277 279 280 281 282 282 281 280 279 278 279 281 284 285 284 281 276 273 267 259 254 250 246 239 231 227 226 226 225